Theta_e
302 304 306 305 304 304 305 306 306 303 303 304 305 303 303 301 300 299 299 298 298 297 297 297 296 296 295 295 296 296 296 297 297 299 305 310 312 314 316 318 323 324 325 326
302 307 305 305 304 305 305 306 305 303 303 304 303 305 302 302 301 300 300 299 298 297 296 296 296 296 295 294 294 295 295 296 296 297 298 299 304 310 311 314 317 322 324 324
303 306 304 304 305 306 306 306 306 307 304 302 301 301 301 302 301 300 299 298 297 297 296 295 295 295 295 294 294 294 295 295 295 297 298 300 304 308 310 310 314 316 321 323
303 303 304 305 306 305 307 305 305 306 305 308 301 307 302 301 302 301 300 298 297 296 295 294 294 294 294 293 294 294 295 295 295 296 297 297 298 300 301 304 307 313 314 321
302 304 303 304 305 305 305 304 305 305 305 305 304 301 302 300 304 303 301 299 297 296 294 294 294 294 293 293 293 293 294 294 295 295 296 296 296 297 298 302 305 310 311 314
302 302 303 303 303 304 302 305 298 298 303 298 304 302 303 302 304 302 301 298 297 296 294 294 294 293 293 292 292 293 294 294 294 295 295 295 296 296 297 298 302 304 309 312
299 302 300 302 303 301 300 297 294 298 296 299 299 301 303 301 299 300 301 299 297 295 293 293 292 292 292 291 292 292 293 293 294 294 295 295 295 296 296 297 298 300 303 309
296 297 301 300 304 304 304 299 297 294 297 296 298 304 303 301 300 299 298 297 296 295 293 292 293 292 291 291 291 291 292 292 293 294 294 294 295 295 296 297 298 299 300 303
294 296 300 300 301 300 300 300 300 296 294 296 297 297 295 301 302 301 300 299 297 296 294 292 293 292 291 290 291 290 291 292 293 293 294 294 295 295 295 297 298 299 299 301
294 296 296 300 301 301 302 299 295 294 292 293 294 293 298 302 304 300 299 298 297 295 294 292 292 292 291 290 290 290 291 292 292 293 293 293 294 294 295 295 297 298 299 300
292 295 296 298 299 302 303 300 300 298 297 293 292 296 293 299 302 300 298 297 296 295 294 292 292 292 291 290 290 290 291 292 292 292 293 293 293 294 295 295 296 298 299 300
297 296 295 296 296 297 299 301 299 297 292 293 294 296 295 295 297 298 298 297 296 294 293 292 292 291 290 290 289 290 290 291 291 292 293 293 293 294 294 295 296 298 299 300
299 296 297 299 297 297 300 301 300 296 295 294 293 298 293 293 296 297 296 293 292 291 291 291 291 291 290 289 288 289 289 290 291 292 293 293 293 294 294 294 296 297 299 301
297 292 300 304 303 298 297 299 300 297 293 294 294 293 295 290 289 291 290 290 287 289 290 289 290 291 290 288 288 289 289 290 291 292 292 292 293 293 293 294 296 297 298 300
297 296 291 293 295 298 299 298 300 295 296 298 296 292 295 291 289 290 290 291 291 290 287 286 285 290 291 290 288 289 289 290 290 291 292 292 292 293 293 294 295 296 297 299
297 298 292 295 291 295 297 297 298 297 291 292 290 295 296 296 293 291 292 292 292 293 290 287 286 290 291 291 289 288 289 289 289 290 291 291 292 293 293 294 295 297 297 297
297 295 293 299 289 290 302 293 297 298 297 297 298 299 297 296 297 295 297 296 295 296 295 292 291 292 293 292 290 289 289 289 289 290 291 291 291 291 292 293 295 296 297 297
297 295 294 297 295 308 308 293 296 297 295 297 298 297 296 296 296 295 294 295 294 294 294 294 294 293 293 292 291 289 289 289 289 290 291 292 291 291 291 292 293 294 295 296
295 296 292 301 298 304 305 295 296 297 303 296 298 299 295 295 295 294 293 292 293 293 294 296 297 294 294 292 290 289 289 289 288 289 289 290 292 291 291 291 291 292 292 292
293 294 297 289 302 305 308 298 294 294 302 297 296 296 294 294 297 296 296 296 295 295 296 296 296 294 294 292 291 289 289 289 289 288 289 288 289 289 291 291 291 291 290 290
296 294 294 291 294 298 300 296 293 304 309 294 294 293 293 295 296 295 295 297 297 296 296 297 296 295 295 292 291 290 289 289 289 288 289 288 287 288 289 291 290 290 290 290
299 298 293 289 291 303 295 295 299 302 298 295 293 292 294 294 295 295 296 297 296 296 296 297 295 295 294 292 291 290 290 290 289 288 288 288 288 287 286 288 290 290 289 289
303 301 298 297 300 298 296 299 296 295 298 297 294 293 293 294 295 295 296 295 295 296 296 297 297 296 295 293 292 291 292 290 290 289 289 288 287 287 286 286 287 288 289 288
293 294 296 297 302 296 295 297 295 295 297 298 296 294 292 295 294 295 294 294 295 296 296 296 296 295 296 295 293 294 292 291 290 290 289 288 288 287 287 286 286 286 287 287
296 295 294 295 298 297 296 295 297 295 294 295 295 294 294 294 295 295 295 293 295 296 297 297 296 296 298 297 296 296 294 291 290 290 289 288 288 287 287 287 287 286 286 286
292 296 300 304 302 305 307 300 296 295 295 295 295 295 294 294 295 294 293 296 297 296 296 297 297 296 298 298 297 297 295 293 291 290 289 289 288 288 288 287 287 287 287 286
Wind_Speed
5 8 4 4 3 1 1 3 3 4 0 5 3 9 12 6 5 7 5 4 5 6 5 7 10 13 17 19 21 21 21 21 19 20 15 9 9 8 10 6 11 14 18 21
6 4 3 2 3 4 4 1 4 4 2 2 5 15 7 3 5 5 5 5 5 5 5 8 11 13 16 18 20 21 20 18 18 17 14 9 9 6 7 7 6 10 14 20
6 2 1 2 4 3 1 2 2 3 6 0 6 6 5 2 3 5 6 5 4 5 7 5 12 13 15 19 19 19 19 17 16 15 12 9 3 4 5 8 9 3 9 17
6 0 3 2 2 2 2 2 2 2 3 2 5 4 5 4 7 5 8 6 7 6 5 4 10 13 14 16 17 18 16 17 16 14 13 11 8 7 8 10 8 7 4 11
2 2 3 3 1 2 3 2 2 1 2 1 4 3 6 4 5 4 7 7 6 6 5 5 8 11 13 14 16 16 15 15 14 12 11 10 8 8 8 7 8 5 5 4
2 1 2 1 2 2 4 1 4 3 1 4 2 3 5 3 4 6 4 7 6 6 5 6 8 8 12 13 15 15 16 14 13 11 11 10 9 10 8 7 7 9 7 6
4 2 2 3 3 0 2 3 3 6 5 4 0 1 8 6 5 4 6 8 7 6 5 5 9 10 11 14 15 14 15 16 15 13 12 10 9 9 8 6 6 7 7 6
4 5 1 3 2 2 2 1 5 4 2 5 3 4 4 4 5 6 7 7 7 7 5 5 8 9 8 11 13 12 13 14 14 13 11 9 9 8 7 6 5 5 6 5
4 3 1 3 1 3 4 3 1 7 3 2 3 6 8 3 5 4 8 6 7 7 6 6 8 7 8 9 10 10 12 13 14 14 12 10 10 9 8 7 5 5 5 5
4 2 2 1 1 2 2 5 3 4 3 5 4 5 4 5 5 6 7 8 8 6 6 5 7 7 7 7 8 9 10 11 13 12 11 10 9 8 6 6 5 5 6 5
3 3 3 2 3 5 1 1 4 5 3 4 2 5 7 6 4 6 7 7 8 8 7 5 7 5 5 7 7 8 10 13 12 11 10 10 10 8 7 5 5 4 5 5
5 4 2 4 2 1 3 3 2 4 3 1 3 6 4 8 8 6 9 8 6 6 7 8 7 5 4 5 5 6 9 10 11 11 11 11 10 9 8 7 5 4 1 2
6 1 2 5 4 4 4 4 3 4 3 6 5 6 2 6 8 7 7 8 7 4 7 5 6 8 6 4 3 3 3 4 7 8 9 9 10 9 8 7 6 5 3 3
5 2 6 6 5 4 3 4 5 4 4 5 7 8 10 8 8 6 8 7 5 4 4 4 6 9 7 5 4 4 3 5 8 7 7 7 8 8 8 8 8 7 6 6
2 5 3 3 3 2 4 5 10 9 5 6 4 8 10 8 7 8 6 5 5 6 3 2 2 4 8 7 5 4 3 2 3 3 4 5 6 7 7 9 9 9 8 10
1 2 2 4 1 3 5 10 12 8 3 9 2 15 13 10 6 6 7 4 4 6 6 4 4 6 7 7 5 4 4 2 0 1 3 5 7 7 9 9 9 12 11 11
6 5 3 5 1 3 7 9 16 6 6 8 8 13 3 3 7 5 6 6 7 7 6 5 5 5 3 5 4 4 5 3 1 2 3 4 6 7 8 8 9 12 12 10
6 5 2 3 3 2 5 4 8 9 6 17 8 7 6 5 3 7 8 7 9 8 8 7 7 6 4 5 6 4 4 4 3 3 2 2 3 4 6 7 10 10 10 10
2 4 2 3 3 7 3 5 8 9 8 23 21 13 6 2 5 8 7 8 9 7 11 11 7 8 7 6 5 6 5 5 5 4 3 3 3 3 4 5 7 8 8 9
4 3 3 3 4 6 5 4 5 3 6 8 19 10 8 7 2 4 5 4 4 7 8 10 11 11 11 10 9 7 6 7 8 6 4 2 3 5 6 5 5 6 7 8
3 1 6 3 3 8 8 6 6 4 6 5 12 7 9 7 5 2 5 3 2 3 7 9 12 13 11 13 13 11 9 11 7 7 7 5 4 5 6 6 6 7 7 6
9 9 4 3 2 9 8 5 8 4 1 5 6 7 11 6 6 6 6 4 6 6 9 11 12 14 14 15 15 14 13 7 9 9 9 8 7 6 5 6 8 8 8 8
5 7 7 11 8 3 14 3 6 1 2 4 5 7 7 9 7 7 6 7 8 9 10 12 15 15 16 17 18 18 15 13 13 12 12 12 11 10 8 8 9 11 12 11
5 3 3 3 7 14 11 12 8 4 5 3 5 7 9 8 8 7 7 6 8 12 15 14 15 17 20 20 20 20 16 15 15 16 16 16 15 14 14 13 12 13 13 14
5 10 7 5 9 5 9 13 13 10 9 7 5 6 10 8 6 7 6 8 11 12 13 16 21 23 24 21 24 23 22 22 21 20 20 21 20 18 17 17 17 17 16 15
5 7 7 7 11 7 8 7 8 11 15 16 10 8 7 10 10 8 7 16 14 15 14 17 21 24 26 23 24 24 26 27 27 26 26 26 25 24 22 20 20 21 19 18
Wind_Direction
17 60 43 348 329 347 298 113 274 261 266 10 295 288 285 272 255 277 272 276 296 303 310 342 357 3 6 8 9 11 7 8 4 2 17 17 14 42 67 93 208 221 229 226
36 74 315 262 31 71 339 66 310 284 329 2 331 298 295 252 250 243 271 273 278 299 315 341 354 2 3 5 7 7 4 11 8 4 4 343 331 360 12 49 64 216 213 224
109 168 275 63 27 32 350 95 311 284 323 191 327 310 334 323 279 282 271 261 270 276 300 327 343 354 358 0 3 2 0 6 11 4 6 4 32 41 31 17 44 53 189 211
94 14 114 83 33 92 306 89 291 285 29 331 30 287 309 323 310 289 290 277 273 289 295 313 337 343 355 353 354 359 0 4 10 9 19 16 11 9 2 2 355 24 44 183
186 105 82 65 359 94 286 344 238 313 75 52 27 65 271 346 327 316 325 322 281 275 280 303 329 333 346 352 352 353 359 5 7 11 21 18 7 13 359 356 0 15 9 100
87 105 76 107 300 174 296 223 35 42 40 36 339 95 285 295 280 304 303 313 297 288 290 301 317 330 340 350 354 354 356 359 7 10 22 20 9 14 6 7 8 341 357 7
356 12 67 52 4 54 44 45 358 358 11 219 348 66 248 280 274 243 285 300 303 299 279 288 307 330 340 348 355 356 355 357 2 8 15 11 14 15 355 8 354 342 348 349
130 322 71 12 94 219 340 232 140 212 296 281 303 244 260 219 284 280 278 277 292 294 271 271 286 309 334 343 350 356 358 354 358 5 6 6 6 10 356 358 350 331 334 341
125 299 354 66 34 111 308 33 351 102 48 2 271 288 295 280 305 311 294 304 297 293 277 262 279 299 326 343 348 350 354 355 356 360 359 1 7 1 359 358 357 344 323 317
186 58 309 68 244 52 225 144 56 14 48 314 297 281 249 314 314 329 323 312 308 307 295 267 262 287 316 338 345 349 355 358 4 357 355 2 5 1 3 2 4 351 327 314
130 103 283 79 209 177 275 348 55 109 96 159 291 271 211 226 270 293 292 291 296 300 300 292 260 261 300 329 346 353 355 358 1 1 2 8 7 11 13 17 1 6 339 314
180 147 144 205 250 13 282 242 199 122 242 89 130 276 201 227 237 245 272 282 279 288 295 299 277 268 282 306 335 351 351 352 351 359 12 12 13 20 18 23 27 31 319 303
179 247 24 353 7 357 252 207 147 91 91 195 137 264 302 270 258 239 268 299 299 307 318 314 291 282 283 269 290 313 336 353 358 3 19 14 22 23 31 32 40 45 77 89
116 107 172 196 193 127 203 221 185 149 127 167 226 284 286 275 260 274 287 272 281 289 279 297 307 302 285 289 294 306 336 358 6 12 25 28 28 28 36 44 55 57 74 94
182 200 167 258 225 236 225 186 193 200 189 175 245 217 258 252 248 262 247 272 312 301 296 232 215 285 302 278 275 282 298 343 19 20 27 34 45 56 58 62 68 77 92 97
204 191 119 289 288 225 261 223 209 216 262 284 84 281 235 271 244 262 245 238 260 274 269 248 229 244 273 269 259 264 270 268 123 69 46 46 50 59 67 77 84 90 87 96
156 137 112 267 330 304 278 223 188 186 214 162 188 225 171 271 240 248 246 219 239 247 251 244 225 225 225 245 237 245 267 263 218 100 64 63 60 65 67 79 90 90 92 100
144 126 102 246 11 316 244 136 179 202 230 215 253 233 199 199 251 279 248 232 247 243 236 231 229 198 169 193 205 217 246 257 245 166 140 101 77 76 75 80 81 87 96 104
41 133 114 175 197 297 236 195 165 180 270 205 220 224 199 179 321 285 237 218 235 237 237 225 215 187 169 170 198 214 228 254 255 230 186 155 130 97 100 93 98 103 112 112
98 60 125 120 168 223 247 176 185 209 290 190 197 204 165 140 166 254 196 193 216 240 222 196 179 179 173 176 180 217 252 254 259 265 259 223 162 143 140 133 130 123 114 110
136 96 183 161 225 287 246 147 145 105 241 153 185 171 156 179 196 182 146 159 144 182 188 186 188 186 192 180 184 192 218 248 271 260 258 258 218 180 159 149 143 140 141 137
167 160 187 99 109 268 137 87 180 219 67 152 173 188 187 199 181 177 193 182 173 183 188 197 200 200 195 195 195 197 216 226 229 246 258 257 249 240 228 191 174 171 166 164
223 191 179 186 207 209 195 218 234 341 205 196 183 202 186 187 203 188 200 203 205 210 221 216 213 215 211 209 210 210 218 210 218 227 235 238 247 249 243 242 225 198 190 189
246 173 192 109 234 231 223 243 249 223 231 216 217 187 178 194 200 211 210 215 203 217 220 226 225 225 227 222 225 232 227 215 219 226 226 229 234 236 236 234 229 234 221 210
179 143 170 266 281 272 236 230 238 219 219 238 236 203 197 191 207 204 208 222 224 227 219 218 222 230 237 230 229 232 228 223 224 225 227 228 231 236 237 239 237 236 238 240
189 174 183 212 219 195 242 203 188 204 215 211 198 216 216 193 209 200 223 231 235 238 229 229 232 237 244 239 237 235 231 229 227 227 227 227 231 233 237 238 239 241 238 236